| time (UTC) | temp F | wind direction | speed MPH | gust MPH | rain 1hr in | rain 24hr in | rain mn in | humidity % | barometer mb |
| 20260510034524 | 79 | 0.0 | 0.0 | 0.00 | 0.00 | 0.00 | 20 | 1004.9 | |
| 20260510033024 | 81 | 0.0 | 0.0 | 0.00 | 0.00 | 0.00 | 18 | 1004.8 | |
| 20260510031529 | 83 | 0.0 | 0.0 | 0.00 | 0.00 | 0.00 | 14 | 1004.5 | |
| 20260510030022 | 83 | 0.0 | 0.0 | 0.00 | 0.00 | 0.00 | 15 | 1004.4 | |
| 20260510024521 | 85 | 0.0 | 0.0 | 0.00 | 0.00 | 0.00 | 14 | 1004.2 | |
| 20260510023023 | 87 | 0.0 | 0.0 | 0.00 | 0.00 | 0.00 | 12 | 1004.1 | |
| 20260510021526 | 90 | 0.0 | 0.0 | 0.00 | 0.00 | 0.00 | 11 | 1004.1 | |
| 20260510020027 | 91 | 0.0 | 0.0 | 0.00 | 0.00 | 0.00 | 11 | 1003.9 | |
| 20260510014519 | 92 | 0.0 | 0.0 | 0.00 | 0.00 | 0.00 | 10 | 1003.8 | |
| 20260510013019 | 94 | 0.0 | 0.0 | 0.00 | 0.00 | 0.00 | 9 | 1003.8 | |
| 20260510011517 | 95 | 0.0 | 0.0 | 0.00 | 0.00 | 0.00 | 9 | 1003.8 | |
| 20260510010017 | 95 | 0.0 | 0.0 | 0.00 | 0.00 | 0.00 | 9 | 1003.7 | |
| 20260510004518 | 96 | 0.0 | 0.0 | 0.00 | 0.00 | 0.00 | 9 | 1003.8 | |
| 20260510003015 | 97 | 0.0 | 0.0 | 0.00 | 0.00 | 0.00 | 8 | 1003.7 | |
| 20260510001514 | 97 | 0.0 | 0.0 | 0.00 | 0.00 | 0.00 | 8 | 1003.8 | |
| 20260510000012 | 97 | 0.0 | 0.0 | 0.00 | 0.00 | 0.00 | 9 | 1003.9 | |
| 20260509234514 | 97 | 0.0 | 0.0 | 0.00 | 0.00 | 0.00 | 9 | 1004.0 | |
| 20260509233013 | 97 | 0.0 | 0.0 | 0.00 | 0.00 | 0.00 | 8 | 1004.1 | |
| 20260509231509 | 98 | 0.0 | 0.0 | 0.00 | 0.00 | 0.00 | 8 | 1004.2 | |
| 20260509230007 | 98 | 0.0 | 0.0 | 0.00 | 0.00 | 0.00 | 8 | 1004.3 | |
| 20260509224505 | 99 | 0.0 | 0.0 | 0.00 | 0.00 | 0.00 | 8 | 1004.5 | |
| 20260509223005 | 98 | 0.0 | 0.0 | 0.00 | 0.00 | 0.00 | 9 | 1004.7 | |
| 20260509221501 | 99 | 0.0 | 0.0 | 0.00 | 0.00 | 0.00 | 9 | 1004.9 | |
| 20260509220100 | 98 | 0.0 | 0.0 | 0.00 | 0.00 | 0.00 | 8 | 1005.1 | |
| 20260509214603 | 100 | 0.0 | 0.0 | 0.00 | 0.00 | 0.00 | 9 | 1005.2 | |
| 20260509213054 | 97 | 0.0 | 0.0 | 0.00 | 0.00 | 0.00 | 9 | 1005.5 | |
| 20260509211553 | 97 | 0.0 | 0.0 | 0.00 | 0.00 | 0.00 | 10 | 1005.7 | |
| 20260509210050 | 97 | 0.0 | 0.0 | 0.00 | 0.00 | 0.00 | 10 | 1005.9 | |
| 20260509204547 | 97 | 0.0 | 0.0 | 0.00 | 0.00 | 0.00 | 10 | 1006.2 | |
| 20260509203045 | 98 | 0.0 | 0.0 | 0.00 | 0.00 | 0.00 | 11 | 1006.5 | |
| 20260509201544 | 98 | 0.0 | 0.0 | 0.00 | 0.00 | 0.00 | 11 | 1006.7 | |
| 20260509200045 | 96 | 0.0 | 0.0 | 0.00 | 0.00 | 0.00 | 11 | 1006.9 | |
| 20260509194548 | 97 | 0.0 | 0.0 | 0.00 | 0.00 | 0.00 | 11 | 1007.1 | |
| 20260509193038 | 95 | 0.0 | 0.0 | 0.00 | 0.00 | 0.00 | 12 | 1007.3 | |
| 20260509191534 | 94 | 0.0 | 0.0 | 0.00 | 0.00 | 0.00 | 13 | 1007.5 | |
| 20260509190031 | 95 | 0.0 | 0.0 | 0.00 | 0.00 | 0.00 | 14 | 1007.7 | |
| 20260509184525 | 93 | 0.0 | 0.0 | 0.00 | 0.00 | 0.00 | 15 | 1008.0 | |
| 20260509183022 | 92 | 0.0 | 0.0 | 0.00 | 0.00 | 0.00 | 16 | 1008.3 | |
| 20260509181520 | 91 | 0.0 | 0.0 | 0.00 | 0.00 | 0.00 | 16 | 1008.6 | |
| 20260509180016 | 89 | 0.0 | 0.0 | 0.00 | 0.00 | 0.00 | 18 | 1008.8 | |
| 20260509174535 | 89 | 0.0 | 0.0 | 0.00 | 0.00 | 0.00 | 17 | 1008.9 | |
| 20260509173011 | 88 | 0.0 | 0.0 | 0.00 | 0.00 | 0.00 | 17 | 1009.0 | |
| 20260509171509 | 87 | 0.0 | 0.0 | 0.00 | 0.00 | 0.00 | 20 | 1009.1 | |
| 20260509170005 | 86 | 0.0 | 0.0 | 0.00 | 0.00 | 0.00 | 19 | 1009.2 | |
| 20260509164503 | 86 | 0.0 | 0.0 | 0.00 | 0.00 | 0.00 | 20 | 1009.2 | |
| 20260509163105 | 85 | 0.0 | 0.0 | 0.00 | 0.00 | 0.00 | 19 | 1009.3 | |
| 20260509161603 | 84 | 0.0 | 0.0 | 0.00 | 0.00 | 0.00 | 22 | 1009.4 | |
| 20260509160054 | 82 | 0.0 | 0.0 | 0.00 | 0.00 | 0.00 | 22 | 1009.5 | |
| 20260509154550 | 81 | 0.0 | 0.0 | 0.00 | 0.00 | 0.00 | 24 | 1009.4 | |
| 20260509153052 | 78 | 0.0 | 0.0 | 0.00 | 0.00 | 0.00 | 27 | 1009.6 | |
| 20260509151544 | 77 | 0.0 | 0.0 | 0.00 | 0.00 | 0.00 | 27 | 1009.6 | |
| 20260509150043 | 76 | 0.0 | 0.0 | 0.00 | 0.00 | 0.00 | 28 | 1009.7 | |
| 20260509144537 | 74 | 0.0 | 0.0 | 0.00 | 0.00 | 0.00 | 31 | 1009.7 | |
| 20260509143036 | 72 | 0.0 | 0.0 | 0.00 | 0.00 | 0.00 | 34 | 1009.7 | |
| 20260509141529 | 69 | 0.0 | 0.0 | 0.00 | 0.00 | 0.00 | 36 | 1009.7 | |
| 20260509140030 | 67 | 0.0 | 0.0 | 0.00 | 0.00 | 0.00 | 41 | 1009.6 | |
| 20260509134521 | 65 | 0.0 | 0.0 | 0.00 | 0.00 | 0.00 | 43 | 1009.4 | |
| 20260509133018 | 62 | 0.0 | 0.0 | 0.00 | 0.00 | 0.00 | 51 | 1009.3 | |
| 20260509131518 | 58 | 0.0 | 0.0 | 0.00 | 0.00 | 0.00 | 56 | 1009.3 | |
| 20260509130011 | 57 | 0.0 | 0.0 | 0.00 | 0.00 | 0.00 | 56 | 1009.1 | |
| 20260509124509 | 56 | 0.0 | 0.0 | 0.00 | 0.00 | 0.00 | 56 | 1008.9 | |
| 20260509123008 | 57 | 0.0 | 0.0 | 0.00 | 0.00 | 0.00 | 54 | 1008.8 | |
| 20260509121506 | 56 | 0.0 | 0.0 | 0.00 | 0.00 | 0.00 | 58 | 1008.6 | |
| 20260509120002 | 57 | 0.0 | 0.0 | 0.00 | 0.00 | 0.00 | 57 | 1008.5 | |
| 20260509114558 | 58 | 0.0 | 0.0 | 0.00 | 0.00 | 0.00 | 53 | 1008.5 | |
| 20260509113102 | 60 | 0.0 | 0.0 | 0.00 | 0.00 | 0.00 | 47 | 1008.5 | |
| 20260509111556 | 59 | 0.0 | 0.0 | 0.00 | 0.00 | 0.00 | 52 | 1008.4 | |
| 20260509110054 | 59 | 0.0 | 0.0 | 0.00 | 0.00 | 0.00 | 52 | 1008.3 | |
| 20260509104554 | 58 | 0.0 | 0.0 | 0.00 | 0.00 | 0.00 | 53 | 1008.3 | |
| 20260509103100 | 59 | 0.0 | 0.0 | 0.00 | 0.00 | 0.00 | 52 | 1008.3 | |
| 20260509101551 | 59 | 0.0 | 0.0 | 0.00 | 0.00 | 0.00 | 51 | 1008.3 | |
| 20260509100051 | 60 | 0.0 | 0.0 | 0.00 | 0.00 | 0.00 | 47 | 1008.3 | |
| 20260509094546 | 61 | 0.0 | 0.0 | 0.00 | 0.00 | 0.00 | 46 | 1008.4 | |
| 20260509093044 | 62 | 0.0 | 0.0 | 0.00 | 0.00 | 0.00 | 44 | 1008.4 | |
| 20260509091540 | 63 | 0.0 | 0.0 | 0.00 | 0.00 | 0.00 | 42 | 1008.4 | |
| 20260509090047 | 64 | 0.0 | 0.0 | 0.00 | 0.00 | 0.00 | 40 | 1008.4 | |
| 20260509084536 | 64 | 0.0 | 0.0 | 0.00 | 0.00 | 0.00 | 40 | 1008.3 | |
| 20260509083034 | 64 | 0.0 | 0.0 | 0.00 | 0.00 | 0.00 | 42 | 1008.4 | |
| 20260509081532 | 64 | 0.0 | 0.0 | 0.00 | 0.00 | 0.00 | 40 | 1008.4 | |
| 20260509080030 | 65 | 0.0 | 0.0 | 0.00 | 0.00 | 0.00 | 37 | 1008.5 | |
| 20260509074530 | 66 | 0.0 | 0.0 | 0.00 | 0.00 | 0.00 | 36 | 1008.5 | |
| 20260509073026 | 65 | 0.0 | 0.0 | 0.00 | 0.00 | 0.00 | 39 | 1008.4 | |
| 20260509071524 | 65 | 0.0 | 0.0 | 0.00 | 0.00 | 0.00 | 40 | 1008.3 | |
| 20260509070021 | 66 | 0.0 | 0.0 | 0.00 | 0.00 | 0.00 | 40 | 1008.3 | |
| 20260509064520 | 68 | 0.0 | 0.0 | 0.00 | 0.00 | 0.00 | 34 | 1008.2 | |
| 20260509063025 | 69 | 0.0 | 0.0 | 0.00 | 0.00 | 0.00 | 32 | 1008.0 | |
| 20260509061524 | 69 | 0.0 | 0.0 | 0.00 | 0.00 | 0.00 | 31 | 1007.9 | |
| 20260509060023 | 69 | 0.0 | 0.0 | 0.00 | 0.00 | 0.00 | 33 | 1007.9 | |
| 20260509054518 | 69 | 0.0 | 0.0 | 0.00 | 0.00 | 0.00 | 32 | 1007.7 | |
| 20260509053018 | 71 | 0.0 | 0.0 | 0.00 | 0.00 | 0.00 | 32 | 1007.8 | |
| 20260509051518 | 73 | 0.0 | 0.0 | 0.00 | 0.00 | 0.00 | 28 | 1007.7 | |
| 20260509050038 | 73 | 0.0 | 0.0 | 0.00 | 0.00 | 0.00 | 27 | 1007.7 | |
| 20260509044518 | 74 | 0.0 | 0.0 | 0.00 | 0.00 | 0.00 | 25 | 1007.5 | |
| 20260509043015 | 74 | 0.0 | 0.0 | 0.00 | 0.00 | 0.00 | 26 | 1007.5 | |
| 20260509041515 | 75 | 0.0 | 0.0 | 0.00 | 0.00 | 0.00 | 26 | 1007.3 | |
| 20260509040014 | 77 | 0.0 | 0.0 | 0.00 | 0.00 | 0.00 | 21 | 1007.1 |